• en Belgique
  • Liste des pays
  • À 7 jours
  • Température de l'eau
  • Carte satellitaire
  • Carte météo
  • Widgets météo
  • user-avatar
    Se connecter

    Météo par heure à Bastogne

    Ce jour, 19 Février, Lundi

    Heure Température Précipitation Vent Pression Humidité
    00:00 +1°C° 0 mm 5 m/s 765 mmHg 78%
    01:00 +1°C° 0 mm 5 m/s 765 mmHg 77%
    02:00 +1°C° 0 mm 5 m/s 765 mmHg 76%
    03:00 0°C° 0 mm 5 m/s 765 mmHg 76%
    04:00 +1°C° 0,2 mm 5 m/s 764 mmHg 76%
    05:00 +1°C° 0,2 mm 5 m/s 764 mmHg 76%
    06:00 +1°C° 0,2 mm 5 m/s 764 mmHg 76%
    07:00 +1°C° 0,3 mm 5 m/s 763 mmHg 76%
    08:00 +1°C° 0,3 mm 5 m/s 763 mmHg 76%
    09:00 +2°C° 0,3 mm 5 m/s 763 mmHg 76%
    10:00 +2°C° 0,1 mm 5 m/s 763 mmHg 77%
    11:00 +3°C° 0,1 mm 5 m/s 763 mmHg 77%
    12:00 +5°C° 0,1 mm 5 m/s 763 mmHg 77%
    13:00 +5°C° 0,3 mm 5 m/s 762 mmHg 79%
    14:00 +5°C° 0,3 mm 4 m/s 762 mmHg 81%
    15:00 +5°C° 0,3 mm 4 m/s 761 mmHg 83%
    16:00 +5°C° 0,5 mm 4 m/s 761 mmHg 86%
    17:00 +5°C° 0,5 mm 4 m/s 761 mmHg 88%
    18:00 +4°C° 0,5 mm 4 m/s 761 mmHg 90%
    19:00 +4°C° 0,2 mm 3 m/s 761 mmHg 91%
    20:00 +4°C° 0,2 mm 3 m/s 761 mmHg 92%
    21:00 +4°C° 0,2 mm 3 m/s 761 mmHg 93%
    22:00 +4°C° 0,1 mm 3 m/s 761 mmHg 93%
    23:00 +4°C° 0,1 mm 3 m/s 761 mmHg 93%

    Demain, 20 Février, Mardi

    Heure Température Précipitation Vent Pression Humidité
    00:00 +4°C° 0,1 mm 3 m/s 761 mmHg 93%
    01:00 +4°C° 0,1 mm 3 m/s 761 mmHg 93%
    02:00 +4°C° 0,1 mm 3 m/s 761 mmHg 93%
    03:00 +3°C° 0,1 mm 3 m/s 761 mmHg 93%
    04:00 +3°C° 0,2 mm 3 m/s 761 mmHg 92%
    05:00 +3°C° 0,2 mm 3 m/s 761 mmHg 91%
    06:00 +3°C° 0,2 mm 3 m/s 761 mmHg 91%
    07:00 +3°C° 0,3 mm 4 m/s 761 mmHg 89%
    08:00 +3°C° 0,3 mm 4 m/s 762 mmHg 87%
    09:00 +3°C° 0,3 mm 4 m/s 762 mmHg 85%
    10:00 +4°C° 0,1 mm 4 m/s 762 mmHg 81%
    11:00 +4°C° 0,1 mm 4 m/s 762 mmHg 76%
    12:00 +5°C° 0,1 mm 4 m/s 763 mmHg 72%
    13:00 +5°C° 0 mm 5 m/s 763 mmHg 68%
    14:00 +5°C° 0 mm 5 m/s 763 mmHg 64%
    15:00 +5°C° 0 mm 6 m/s 764 mmHg 61%
    16:00 +4°C° 0 mm 6 m/s 764 mmHg 64%
    17:00 +3°C° 0 mm 6 m/s 765 mmHg 67%
    18:00 +2°C° 0 mm 6 m/s 766 mmHg 70%
    19:00 +2°C° 0 mm 6 m/s 767 mmHg 71%
    20:00 +1°C° 0 mm 6 m/s 767 mmHg 71%
    21:00 +1°C° 0 mm 6 m/s 768 mmHg 72%
    22:00 -1°C° 0 mm 6 m/s 768 mmHg 73%
    23:00 0°C° 0 mm 5 m/s 769 mmHg 74%

    Après-demain, 21 Février, Mercredi

    Heure Température Précipitation Vent Pression Humidité
    00:00 0°C° 0 mm 5 m/s 769 mmHg 75%
    01:00 -1°C° 0 mm 5 m/s 769 mmHg 76%
    02:00 -1°C° 0 mm 5 m/s 769 mmHg 77%
    03:00 -1°C° 0 mm 4 m/s 769 mmHg 79%
    04:00 -1°C° 0 mm 4 m/s 769 mmHg 79%
    05:00 -1°C° 0 mm 4 m/s 769 mmHg 80%
    06:00 -2°C° 0 mm 4 m/s 770 mmHg 80%
    07:00 -1°C° 0 mm 4 m/s 770 mmHg 76%
    08:00 0°C° 0 mm 4 m/s 770 mmHg 72%
    09:00 +1°C° 0 mm 5 m/s 770 mmHg 68%
    10:00 +2°C° 0 mm 5 m/s 770 mmHg 64%
    11:00 +4°C° 0 mm 4 m/s 769 mmHg 60%
    12:00 +5°C° 0 mm 4 m/s 769 mmHg 55%
    13:00 +5°C° 0 mm 5 m/s 769 mmHg 56%
    14:00 +5°C° 0 mm 5 m/s 769 mmHg 56%
    15:00 +5°C° 0 mm 5 m/s 768 mmHg 57%
    16:00 +3°C° 0 mm 5 m/s 768 mmHg 63%
    17:00 +3°C° 0 mm 5 m/s 768 mmHg 70%
    18:00 +2°C° 0 mm 5 m/s 768 mmHg 76%
    19:00 +1°C° 0,1 mm 5 m/s 768 mmHg 77%
    20:00 +1°C° 0,1 mm 5 m/s 768 mmHg 78%
    21:00 0°C° 0,1 mm 5 m/s 768 mmHg 80%
    22:00 0°C° 0 mm 5 m/s 768 mmHg 79%
    23:00 0°C° 0 mm 5 m/s 768 mmHg 79%

    22 Février, Jeudi

    Heure Température Précipitation Vent Pression Humidité
    00:00 -1°C° 0 mm 5 m/s 768 mmHg 79%
    01:00 -1°C° 0 mm 5 m/s 768 mmHg 79%
    02:00 -2°C° 0 mm 5 m/s 767 mmHg 79%
    03:00 -2°C° 0 mm 5 m/s 767 mmHg 79%
    04:00 -2°C° 0 mm 5 m/s 767 mmHg 78%
    05:00 -3°C° 0 mm 6 m/s 767 mmHg 77%
    06:00 -3°C° 0 mm 6 m/s 767 mmHg 76%
    07:00 -3°C° 0 mm 6 m/s 767 mmHg 71%
    08:00 -2°C° 0 mm 6 m/s 767 mmHg 66%
    09:00 -1°C° 0 mm 7 m/s 767 mmHg 61%
    10:00 0°C° 0 mm 7 m/s 767 mmHg 58%
    11:00 +2°C° 0 mm 7 m/s 767 mmHg 54%
    12:00 +3°C° 0 mm 7 m/s 767 mmHg 50%
    13:00 +3°C° 0 mm 7 m/s 766 mmHg 48%
    14:00 +2°C° 0 mm 8 m/s 766 mmHg 47%
    15:00 +2°C° 0 mm 8 m/s 766 mmHg 45%
    16:00 +1°C° 0 mm 8 m/s 766 mmHg 47%
    17:00 0°C° 0 mm 8 m/s 766 mmHg 49%
    18:00 -1°C° 0 mm 8 m/s 766 mmHg 51%
    19:00 -1°C° 0 mm 8 m/s 767 mmHg 53%
    20:00 -2°C° 0 mm 8 m/s 767 mmHg 55%
    21:00 -2°C° 0 mm 8 m/s 767 mmHg 57%
    22:00 -4°C° 0 mm 8 m/s 767 mmHg 59%
    23:00 -3°C° 0 mm 7 m/s 767 mmHg 60%

    23 Février, Vendredi

    Heure Température Précipitation Vent Pression Humidité
    00:00 -3°C° 0 mm 7 m/s 767 mmHg 61%
    01:00 -3°C° 0 mm 7 m/s 767 mmHg 62%
    02:00 -3°C° 0 mm 7 m/s 766 mmHg 63%
    03:00 -4°C° 0 mm 6 m/s 766 mmHg 64%
    04:00 -4°C° 0 mm 7 m/s 766 mmHg 66%
    05:00 -4°C° 0 mm 7 m/s 766 mmHg 68%
    06:00 -4°C° 0 mm 7 m/s 766 mmHg 70%
    07:00 -3°C° 0 mm 7 m/s 766 mmHg 67%
    08:00 -2°C° 0 mm 8 m/s 767 mmHg 63%
    09:00 -1°C° 0 mm 8 m/s 767 mmHg 60%
    10:00 -1°C° 0 mm 8 m/s 767 mmHg 57%
    11:00 0°C° 0 mm 8 m/s 767 mmHg 53%
    12:00 +1°C° 0 mm 8 m/s 767 mmHg 50%
    13:00 +1°C° 0 mm 8 m/s 766 mmHg 50%
    14:00 +1°C° 0 mm 8 m/s 766 mmHg 51%
    15:00 +1°C° 0 mm 8 m/s 766 mmHg 51%
    16:00 0°C° 0 mm 8 m/s 766 mmHg 54%
    17:00 -2°C° 0 mm 8 m/s 767 mmHg 57%
    18:00 -4°C° 0 mm 8 m/s 767 mmHg 60%
    19:00 -4°C° 0 mm 8 m/s 767 mmHg 59%
    20:00 -4°C° 0 mm 8 m/s 768 mmHg 58%
    21:00 -4°C° 0 mm 8 m/s 768 mmHg 57%
    22:00 -5°C° 0 mm 8 m/s 768 mmHg 58%
    23:00 -5°C° 0 mm 8 m/s 769 mmHg 58%

    24 Février, Samedi

    Heure Température Précipitation Vent Pression Humidité
    00:00 -5°C° 0 mm 8 m/s 769 mmHg 58%
    01:00 -5°C° 0 mm 8 m/s 769 mmHg 58%
    02:00 -6°C° 0 mm 7 m/s 769 mmHg 58%
    03:00 -6°C° 0 mm 7 m/s 769 mmHg 59%
    04:00 -6°C° 0 mm 7 m/s 770 mmHg 57%
    05:00 -6°C° 0 mm 7 m/s 770 mmHg 56%
    06:00 -6°C° 0 mm 7 m/s 770 mmHg 55%
    07:00 -4°C° 0 mm 7 m/s 771 mmHg 52%
    08:00 -5°C° 0 mm 8 m/s 771 mmHg 49%
    09:00 -4°C° 0 mm 8 m/s 771 mmHg 46%
    10:00 -4°C° 0 mm 8 m/s 772 mmHg 44%
    11:00 -2°C° 0 mm 8 m/s 772 mmHg 42%
    12:00 -1°C° 0 mm 8 m/s 772 mmHg 40%
    13:00 -1°C° 0 mm 8 m/s 771 mmHg 40%
    14:00 -1°C° 0 mm 8 m/s 771 mmHg 39%
    15:00 -1°C° 0 mm 8 m/s 771 mmHg 39%
    16:00 -2°C° 0 mm 8 m/s 772 mmHg 40%
    17:00 -4°C° 0 mm 8 m/s 772 mmHg 41%
    18:00 -5°C° 0 mm 8 m/s 772 mmHg 42%
    19:00 -6°C° 0 mm 8 m/s 773 mmHg 41%
    20:00 -6°C° 0 mm 8 m/s 773 mmHg 40%
    21:00 -6°C° 0 mm 8 m/s 773 mmHg 39%
    22:00 -7°C° 0 mm 8 m/s 774 mmHg 41%
    23:00 -7°C° 0 mm 8 m/s 774 mmHg 42%
    Voir plus